When you browse on this site, cookies collect data to enhance your experience and personalize the content and advertising you see.
Visit our Privacy Policy to learn more. By continuing to use the site, you agree to this use of cookies and data.
  • In Hungary
  • List of Countries
  • For 7 days
  • Water Temperature
  • Satellite Maps
  • Weather Map
  • News
  • Weather Widgets
  • user-avatar
    Login

    Hourly Weather Macnevo

    Today, 17 November, Saturday

    Time Temperature Precipitation Wind Pressure Humidity
    00:00 -4°C° 0 mm 2 mps 766 mmHg 26%
    01:00 -4°C° 0 mm 2 mps 766 mmHg 26%
    02:00 -4°C° 0 mm 2 mps 766 mmHg 26%
    03:00 -3°C° 0 mm 1 mps 766 mmHg 25%
    04:00 -3°C° 0 mm 1 mps 766 mmHg 24%
    05:00 -3°C° 0 mm 1 mps 765 mmHg 24%
    06:00 -3°C° 0 mm 1 mps 765 mmHg 24%
    07:00 -3°C° 0 mm 1 mps 765 mmHg 24%
    08:00 -2°C° 0 mm 1 mps 764 mmHg 23%
    09:00 -2°C° 0 mm 1 mps 764 mmHg 22%
    10:00 -1°C° 0 mm 1 mps 764 mmHg 21%
    11:00 0°C° 0 mm 1 mps 764 mmHg 19%
    12:00 +1°C° 0 mm 1 mps 763 mmHg 17%
    13:00 +1°C° 0 mm 1 mps 763 mmHg 19%
    14:00 +1°C° 0 mm 1 mps 762 mmHg 20%
    15:00 +1°C° 0 mm 1 mps 761 mmHg 22%
    16:00 -1°C° 0 mm 2 mps 761 mmHg 23%
    17:00 -2°C° 0 mm 2 mps 760 mmHg 24%
    18:00 -3°C° 0 mm 2 mps 760 mmHg 25%
    19:00 -3°C° 0 mm 2 mps 759 mmHg 25%
    20:00 -3°C° 0 mm 2 mps 758 mmHg 25%
    21:00 -4°C° 0 mm 3 mps 758 mmHg 25%
    22:00 -4°C° 0 mm 3 mps 757 mmHg 25%
    23:00 -4°C° 0 mm 3 mps 757 mmHg 25%

    Tomorrow, 18 November, Sunday

    Time Temperature Precipitation Wind Pressure Humidity
    00:00 -4°C° 0 mm 3 mps 756 mmHg 25%
    01:00 -4°C° 0 mm 4 mps 756 mmHg 25%
    02:00 -4°C° 0 mm 4 mps 755 mmHg 25%
    03:00 -4°C° 0 mm 4 mps 754 mmHg 25%
    04:00 -4°C° 0 mm 4 mps 754 mmHg 26%
    05:00 -5°C° 0 mm 4 mps 753 mmHg 26%
    06:00 -5°C° 0 mm 3 mps 753 mmHg 26%
    07:00 -5°C° 0 mm 3 mps 753 mmHg 27%
    08:00 -4°C° 0 mm 3 mps 753 mmHg 27%
    09:00 -4°C° 0 mm 3 mps 752 mmHg 27%
    10:00 -2°C° 0 mm 3 mps 752 mmHg 27%
    11:00 -1°C° 0 mm 3 mps 752 mmHg 27%
    12:00 -1°C° 0 mm 3 mps 752 mmHg 26%
    13:00 -1°C° 0 mm 3 mps 752 mmHg 28%
    14:00 -1°C° 0 mm 3 mps 752 mmHg 29%
    15:00 -1°C° 0 mm 2 mps 752 mmHg 31%
    16:00 -1°C° 0 mm 2 mps 752 mmHg 33%
    17:00 -2°C° 0 mm 2 mps 752 mmHg 34%
    18:00 -3°C° 0 mm 2 mps 752 mmHg 36%
    19:00 -3°C° 0 mm 2 mps 752 mmHg 36%
    20:00 -3°C° 0 mm 2 mps 753 mmHg 37%
    21:00 -3°C° 0 mm 2 mps 753 mmHg 38%
    22:00 -3°C° 0 mm 2 mps 753 mmHg 38%
    23:00 -3°C° 0 mm 2 mps 753 mmHg 39%

    Day after tomorrow, 19 November, Monday

    Time Temperature Precipitation Wind Pressure Humidity
    00:00 -4°C° 0 mm 2 mps 753 mmHg 40%
    01:00 -2°C° 0 mm 1 mps 754 mmHg 41%
    02:00 -2°C° 0 mm 1 mps 754 mmHg 41%
    03:00 -2°C° 0 mm 1 mps 754 mmHg 42%
    04:00 -2°C° 0 mm 1 mps 754 mmHg 42%
    05:00 -2°C° 0 mm 1 mps 754 mmHg 43%
    06:00 -3°C° 0 mm 1 mps 755 mmHg 43%
    07:00 -2°C° 0 mm 1 mps 755 mmHg 43%
    08:00 -2°C° 0 mm 1 mps 755 mmHg 43%
    09:00 -2°C° 0 mm 1 mps 756 mmHg 42%
    10:00 -1°C° 0 mm 1 mps 756 mmHg 40%
    11:00 0°C° 0 mm 1 mps 756 mmHg 38%
    12:00 +1°C° 0 mm 1 mps 757 mmHg 35%
    13:00 +1°C° 0 mm 1 mps 757 mmHg 36%
    14:00 +1°C° 0 mm 1 mps 757 mmHg 37%
    15:00 +1°C° 0 mm 1 mps 757 mmHg 38%
    16:00 0°C° 0 mm 1 mps 757 mmHg 40%
    17:00 0°C° 0 mm 1 mps 757 mmHg 42%
    18:00 -3°C° 0 mm 2 mps 757 mmHg 44%
    19:00 -3°C° 0 mm 2 mps 757 mmHg 44%
    20:00 -3°C° 0 mm 2 mps 757 mmHg 45%
    21:00 -3°C° 0 mm 2 mps 757 mmHg 45%
    22:00 -3°C° 0 mm 2 mps 757 mmHg 45%
    23:00 -3°C° 0 mm 2 mps 757 mmHg 45%

    20 November, Tuesday

    Time Temperature Precipitation Wind Pressure Humidity
    00:00 -3°C° 0 mm 2 mps 757 mmHg 45%
    01:00 -3°C° 0 mm 2 mps 757 mmHg 45%
    02:00 -3°C° 0 mm 2 mps 757 mmHg 44%
    03:00 -3°C° 0 mm 2 mps 757 mmHg 44%
    04:00 -3°C° 0 mm 2 mps 757 mmHg 45%
    05:00 -3°C° 0 mm 2 mps 757 mmHg 47%
    06:00 -3°C° 0 mm 2 mps 756 mmHg 48%
    07:00 -3°C° 0 mm 2 mps 756 mmHg 50%
    08:00 -4°C° 0 mm 3 mps 756 mmHg 52%
    09:00 -4°C° 0 mm 3 mps 756 mmHg 55%
    10:00 -2°C° 0 mm 3 mps 756 mmHg 52%
    11:00 -2°C° 0 mm 3 mps 755 mmHg 50%
    12:00 -1°C° 0 mm 3 mps 755 mmHg 48%
    13:00 -1°C° 0.1 mm 3 mps 754 mmHg 51%
    14:00 -2°C° 0.1 mm 3 mps 754 mmHg 54%
    15:00 -2°C° 0.1 mm 3 mps 754 mmHg 57%
    16:00 -2°C° 0 mm 3 mps 753 mmHg 57%
    17:00 -2°C° 0 mm 3 mps 753 mmHg 56%
    18:00 -2°C° 0 mm 3 mps 752 mmHg 56%
    19:00 -2°C° 0.1 mm 2 mps 752 mmHg 59%
    20:00 -3°C° 0.1 mm 2 mps 752 mmHg 61%
    21:00 -3°C° 0.1 mm 2 mps 751 mmHg 64%
    22:00 -3°C° 0.1 mm 2 mps 751 mmHg 69%
    23:00 -3°C° 0.1 mm 2 mps 751 mmHg 74%

    21 November, Wednesday

    Time Temperature Precipitation Wind Pressure Humidity
    00:00 -4°C° 0.1 mm 3 mps 750 mmHg 79%
    01:00 -4°C° 0.1 mm 3 mps 750 mmHg 81%
    02:00 -4°C° 0.1 mm 3 mps 750 mmHg 82%
    03:00 -4°C° 0.1 mm 3 mps 749 mmHg 84%
    04:00 -4°C° 0.2 mm 3 mps 749 mmHg 85%
    05:00 -4°C° 0.2 mm 3 mps 749 mmHg 85%
    06:00 -4°C° 0.2 mm 3 mps 749 mmHg 86%
    07:00 -4°C° 0.1 mm 4 mps 749 mmHg 85%
    08:00 -4°C° 0.1 mm 4 mps 749 mmHg 85%
    09:00 -4°C° 0.1 mm 4 mps 749 mmHg 84%
    10:00 -4°C° 0 mm 4 mps 749 mmHg 82%
    11:00 -4°C° 0 mm 5 mps 749 mmHg 80%
    12:00 -4°C° 0 mm 5 mps 749 mmHg 78%
    13:00 -4°C° 0 mm 5 mps 749 mmHg 78%
    14:00 -4°C° 0 mm 5 mps 749 mmHg 78%
    15:00 -4°C° 0 mm 5 mps 749 mmHg 79%
    16:00 -4°C° 0 mm 5 mps 749 mmHg 80%
    17:00 -3°C° 0 mm 4 mps 749 mmHg 81%
    18:00 -4°C° 0 mm 4 mps 750 mmHg 82%
    19:00 -4°C° 0 mm 4 mps 750 mmHg 83%
    20:00 -4°C° 0 mm 4 mps 750 mmHg 84%
    21:00 -4°C° 0 mm 4 mps 750 mmHg 85%
    22:00 -4°C° 0 mm 4 mps 750 mmHg 85%
    23:00 -4°C° 0 mm 4 mps 750 mmHg 85%

    22 November, Thursday

    Time Temperature Precipitation Wind Pressure Humidity
    00:00 -4°C° 0 mm 4 mps 750 mmHg 85%
    01:00 -4°C° 0 mm 4 mps 750 mmHg 86%
    02:00 -5°C° 0 mm 4 mps 750 mmHg 86%
    03:00 -5°C° 0 mm 4 mps 750 mmHg 86%
    04:00 -5°C° 0 mm 4 mps 750 mmHg 85%
    05:00 -5°C° 0 mm 4 mps 750 mmHg 83%
    06:00 -4°C° 0 mm 3 mps 750 mmHg 82%
    07:00 -5°C° 0 mm 4 mps 751 mmHg 82%
    08:00 -5°C° 0 mm 4 mps 751 mmHg 82%
    09:00 -5°C° 0 mm 4 mps 751 mmHg 83%
    10:00 -5°C° 0 mm 4 mps 751 mmHg 79%
    11:00 -4°C° 0 mm 4 mps 751 mmHg 74%
    12:00 -5°C° 0 mm 5 mps 751 mmHg 70%
    13:00 -4°C° 0 mm 4 mps 751 mmHg 71%
    14:00 -4°C° 0 mm 4 mps 751 mmHg 72%
    15:00 -4°C° 0 mm 4 mps 751 mmHg 74%
    16:00 -4°C° 0 mm 4 mps 751 mmHg 77%
    17:00 -5°C° 0 mm 4 mps 751 mmHg 81%
    18:00 -5°C° 0 mm 4 mps 751 mmHg 84%
    19:00 -5°C° 0 mm 4 mps 751 mmHg 83%
    20:00 -6°C° 0 mm 5 mps 751 mmHg 81%
    21:00 -6°C° 0 mm 5 mps 751 mmHg 79%
    22:00 -6°C° 0 mm 5 mps 751 mmHg 80%
    23:00 -5°C° 0 mm 5 mps 751 mmHg 80%
    Show more